Dewpoint
67 68 68 69 70 70 70 70 69 67 67 68 69 69 69 67 66 65 64 63 63 63 63 62 62 61 61 60 61 59 58 55 53 55 57 58 59 59 60 60 63 61 60
67 68 68 68 69 70 71 71 70 68 67 67 68 68 68 67 67 65 64 64 63 62 63 63 62 62 61 61 61 59 59 59 57 56 56 58 59 59 59 59 59 61 62
67 68 68 68 68 68 69 70 72 70 69 67 67 68 68 68 67 66 65 65 64 64 63 63 63 62 61 61 60 60 60 60 59 58 58 58 59 59 58 59 59 57 58
66 67 68 69 69 68 68 68 70 72 70 69 67 67 68 68 68 67 66 65 64 64 65 63 63 62 62 62 61 61 61 61 59 59 58 58 58 58 58 57 56 56 57
67 68 67 69 70 69 69 68 68 70 71 70 69 68 69 69 68 67 67 66 65 64 64 64 64 64 64 63 62 62 62 61 61 59 58 56 56 55 55 56 56 57 57
67 68 69 69 70 71 70 70 70 69 70 71 69 69 69 69 66 65 67 66 65 65 65 65 65 66 65 64 63 63 63 61 61 59 57 57 58 56 56 56 56 55 54
68 69 69 69 70 71 71 72 72 71 70 70 70 69 69 69 63 64 66 67 67 66 65 64 64 65 65 65 63 63 63 63 62 60 59 57 58 58 58 55 55 55 54
68 69 70 70 70 71 72 72 72 72 71 71 70 69 69 69 62 62 65 68 67 67 67 65 64 64 64 64 64 63 63 62 62 61 60 60 60 60 58 57 56 56 56
67 69 70 71 71 71 72 72 72 73 72 72 71 70 69 69 61 60 63 68 67 67 67 65 65 64 62 61 62 61 61 61 62 61 61 60 60 60 60 58 58 56 52
67 68 70 71 72 72 72 72 73 73 72 73 72 70 67 70 60 58 64 68 66 65 64 64 62 64 59 59 63 62 61 61 62 62 61 59 58 58 59 59 56 52 51
65 68 69 70 72 72 72 73 73 73 73 72 72 71 70 70 62 57 60 67 66 65 64 63 64 59 56 55 59 63 62 61 60 60 57 55 54 52 51 52 54 53 51
64 65 67 69 71 72 72 73 74 73 73 72 71 70 70 68 60 56 57 61 62 63 63 63 63 55 53 53 56 58 57 58 58 55 53 52 50 50 51 49 49 52 55
62 63 65 66 70 71 72 73 74 74 73 71 70 68 67 67 65 57 54 56 58 64 64 61 56 51 50 52 55 56 56 57 54 52 51 49 50 51 49 45 45 42 40
62 62 64 65 67 71 73 74 73 73 72 70 68 67 66 66 64 60 59 58 58 60 58 58 57 57 55 56 55 56 57 55 53 51 49 49 50 49 44 44 41 39 38
67 65 68 69 69 58 53 53 65 65 69 69 67 67 66 65 65 60 58 60 61 57 57 58 56 55 54 53 53 55 53 53 52 50 49 50 49 45 44 42 40 39 36
71 70 69 63 62 60 61 61 52 52 55 52 54 59 64 56 52 51 48 48 49 50 58 57 56 53 53 52 52 51 51 53 50 50 50 50 48 44 43 40 40 36 34
65 64 63 62 63 63 64 63 59 56 53 50 48 48 51 52 47 46 46 48 47 52 56 54 54 52 52 52 52 51 51 52 51 51 50 47 45 43 39 38 35 35 34
64 58 63 63 62 62 61 61 61 61 60 57 47 51 49 47 45 45 44 48 55 52 53 54 54 54 53 52 51 51 50 49 47 44 40 39 37 37 37 33 34 35 33
65 65 63 63 62 61 61 60 59 58 56 52 52 49 45 42 42 43 45 56 54 50 49 48 49 50 50 49 47 47 44 42 40 38 36 38 39 37 33 33 35 38 37
64 60 61 62 61 61 60 59 56 56 55 57 57 53 46 47 50 50 50 50 50 49 46 47 47 47 46 45 44 43 41 39 38 37 37 38 36 34 34 34 34 34 35
64 63 61 62 61 60 60 59 57 56 56 56 54 50 47 53 51 49 47 47 47 46 45 45 45 45 45 43 42 41 38 37 36 38 37 34 34 35 36 35 35 35 35
61 63 63 62 61 59 58 57 54 54 54 53 50 47 43 50 50 47 45 46 45 45 45 45 45 45 44 43 41 37 36 36 37 36 35 35 36 37 37 36 35 34 32
59 59 59 59 60 57 58 56 54 53 52 52 51 48 47 49 48 47 45 47 47 45 45 45 45 44 44 43 40 38 38 37 36 37 36 36 35 35 36 36 35 31 32
57 58 58 57 57 58 58 58 56 53 55 53 52 50 49 49 49 48 47 49 48 46 46 45 43 40 38 36 35 36 37 37 37 36 35 33 33 34 34 35 31 31 33
56 56 58 58 58 58 57 57 57 57 56 55 52 52 52 49 49 50 50 50 49 47 45 45 44 41 37 34 33 35 35 33 34 32 30 28 28 30 34 35 32 33 33
58 59 58 58 58 58 57 57 56 56 56 55 54 53 51 50 50 50 50 50 49 47 45 44 43 41 37 34 33 35 32 31 30 30 29 26 25 32 35 35 34 32 34
Lifted_Index
-4 -4 -4 -4 -4 -4 -4 -4 -4 -4 -4 -4 -4 -4 -4 -3 -3 -2 -2 -1 -0 0 1 1 1 1 1 1 1 2 2 2 3 3 3 3 2 2 2 2 2 2 2
-4 -4 -4 -4 -4 -4 -4 -5 -5 -5 -5 -5 -5 -5 -4 -4 -3 -3 -2 -2 -1 -0 0 1 1 1 1 1 1 2 2 2 2 2 3 3 3 2 2 2 2 2 2
-4 -5 -5 -4 -4 -4 -4 -5 -5 -5 -5 -5 -5 -5 -5 -4 -4 -4 -3 -3 -2 -1 -0 0 0 0 0 1 1 2 2 2 2 2 2 2 2 3 3 3 3 3 2
-5 -5 -5 -5 -5 -4 -4 -4 -5 -6 -6 -6 -6 -6 -5 -5 -5 -5 -4 -4 -4 -3 -2 -1 -0 -0 -0 0 1 2 2 2 2 1 1 2 2 3 3 4 3 3 3
-5 -5 -5 -5 -5 -5 -5 -5 -5 -5 -6 -6 -6 -6 -6 -6 -6 -6 -5 -5 -5 -4 -3 -2 -1 -1 -1 -1 -0 1 1 1 1 1 1 2 2 2 3 3 3 3 3
-6 -6 -6 -6 -6 -6 -6 -6 -5 -5 -6 -6 -6 -6 -6 -6 -6 -6 -6 -6 -5 -5 -4 -3 -2 -1 -1 -1 -1 -1 0 0 1 1 1 1 1 1 2 3 3 3 3
-6 -6 -6 -6 -6 -6 -6 -6 -6 -6 -6 -6 -6 -6 -6 -6 -6 -6 -6 -6 -6 -5 -5 -4 -2 -1 -1 -1 -1 -1 -1 -0 -0 -0 0 0 0 0 1 1 2 2 2
-6 -6 -7 -7 -7 -7 -7 -7 -7 -7 -7 -6 -6 -6 -6 -6 -7 -7 -7 -6 -6 -6 -5 -4 -3 -1 -1 -1 -1 -1 -1 -1 -1 -0 -0 -0 0 0 0 0 0 1 1
-6 -6 -7 -7 -7 -7 -7 -8 -8 -8 -8 -7 -7 -7 -7 -7 -7 -7 -7 -7 -6 -6 -5 -4 -3 -2 -1 -1 -1 -2 -1 -1 -1 -0 0 0 0 0 0 -0 -0 0 0
-5 -6 -7 -7 -8 -8 -8 -8 -8 -8 -8 -8 -7 -7 -7 -8 -8 -8 -8 -7 -7 -6 -5 -4 -2 -2 -2 -2 -2 -2 -2 -1 -1 0 1 1 0 0 0 0 1 1 1
-4 -5 -6 -7 -8 -8 -8 -8 -8 -8 -8 -8 -8 -8 -8 -8 -8 -8 -8 -7 -6 -5 -4 -3 -2 -2 -2 -2 -2 -2 -2 -1 -0 0 1 1 1 1 2 2 2 2 3
-4 -5 -5 -7 -8 -8 -9 -9 -9 -9 -9 -8 -8 -8 -8 -8 -8 -8 -7 -6 -5 -4 -3 -2 -2 -2 -1 -1 -2 -1 -1 -0 0 1 1 2 2 3 3 3 3 3 4
-4 -4 -5 -6 -7 -8 -9 -9 -9 -9 -9 -9 -8 -8 -7 -7 -7 -6 -6 -5 -4 -3 -3 -3 -2 -2 -1 -1 -1 -0 0 0 1 1 2 3 3 3 3 3 4 4 4
-4 -5 -5 -6 -7 -8 -9 -9 -10 -10 -9 -9 -8 -7 -6 -5 -4 -4 -4 -4 -3 -3 -3 -2 -2 -1 -1 -0 0 1 1 1 1 2 2 3 3 3 3 4 4 4 5
-6 -6 -6 -7 -8 -9 -9 -10 -10 -9 -9 -8 -8 -6 -4 -3 -2 -3 -3 -3 -3 -3 -2 -2 -1 -0 0 1 2 2 2 1 1 2 3 3 3 3 3 4 4 5 5
-8 -8 -8 -8 -9 -9 -9 -9 -9 -8 -6 -5 -4 -3 -2 -1 -2 -2 -3 -3 -3 -3 -1 -1 0 1 1 2 3 3 2 2 2 2 2 3 3 3 4 4 5 6 6
-8 -8 -8 -8 -8 -8 -7 -6 -5 -4 -2 -1 -1 -1 -1 -1 -2 -2 -2 -2 -2 -1 0 1 2 2 2 3 3 3 3 2 2 2 2 3 3 4 5 5 6 7 8
-6 -6 -6 -5 -5 -5 -4 -2 -1 -1 -0 0 0 -1 -1 -2 -2 -1 -1 -0 1 1 2 3 3 3 4 4 4 4 3 3 3 3 3 4 4 5 7 8 9 9 10
-3 -3 -3 -3 -3 -2 -1 -0 -0 -1 -1 -1 -1 -1 -2 -1 -0 1 2 2 3 3 4 4 5 5 5 5 5 5 5 4 4 5 5 6 7 8 9 10 10 10 10
-1 -1 -1 -1 -1 -1 -1 -1 -1 -2 -2 -2 -1 -1 -1 0 2 3 3 4 4 5 5 6 7 7 7 7 6 6 6 7 7 7 8 8 9 10 11 11 11 10 10
-1 -1 -1 -1 -1 -1 -1 -2 -2 -2 -2 -2 -1 -0 0 1 3 4 4 4 5 6 7 7 8 8 8 8 8 8 8 8 9 10 10 10 11 11 11 11 11 10 10
-1 -1 -1 -1 -1 -1 -1 -1 -1 -1 -1 -1 -0 1 2 3 4 4 5 6 6 7 7 7 8 8 8 9 9 9 9 10 10 11 11 11 11 11 11 11 11 10 10
-1 -1 -1 -1 -1 -1 -0 -0 -0 0 1 1 2 2 3 4 4 5 6 6 6 6 7 7 8 8 9 9 10 10 10 10 11 11 11 11 11 12 11 11 11 11 11
0 -0 -1 -1 -1 -1 0 0 1 1 2 2 2 3 3 4 4 4 5 5 5 6 6 7 7 8 9 9 9 10 10 11 12 12 12 12 12 12 12 11 11 11 11
1 1 0 -0 -0 -0 1 1 1 1 1 2 2 2 2 3 3 3 4 4 4 5 6 6 7 7 8 8 8 9 10 11 12 12 12 12 13 13 12 11 11 11 11
1 1 1 0 0 1 1 1 1 1 1 1 1 2 2 2 3 3 3 4 4 4 5 6 7 7 7 7 7 8 9 11 12 13 13 13 14 14 13 12 11 11 11